Change the Weather History Date:

Tuesday, July 9, 2013

  Actual Average Record
Temperature  
Mean Temperature 80 °F -  
Max Temperature 90 °F 93 °F 99 °F (1980)
Min Temperature 69 °F 71 °F 66 °F (1997)
Cooling Degree Days 14    
Growing Degree Days 30 (Base 50)    
Moisture  
Dew Point 71 °F    
Average Humidity 81    
Maximum Humidity 94    
Minimum Humidity 48    
Precipitation  
Precipitation 0.00 in - - ()
Sea Level Pressure  
Sea Level Pressure 30.17 in    
Wind  
Wind Speed 1 mph (West)    
Max Wind Speed 7 mph    
Max Gust Speed -    
Visibility 7 miles    
Events      
Averages and records for this station are not official NWS values.
T = Trace of Precipitation, MM = Missing Value Source: NWS Daily Summary

Daily Weather History Graph

Daily Weather History Graph

Search for Another Location

Airport or City:

Trip Planner

Search our weather history database for the weather conditions in past years. The results will help you decide how hot, cold, wet, or windy it might be!

Date:

Astronomy

Jul. 09, 2013 Rise Set
Actual Time 5:50 AM CDT 7:52 PM CDT
Civil Twilight 5:23 AM CDT 8:19 PM CDT
Nautical Twilight 4:49 AM CDT 8:52 PM CDT
Astronomical Twilight 4:14 AM CDT 9:28 PM CDT
Moon 7:05 AM CDT (7/9) 8:39 PM CDT (7/9)
Length of Visible Light 14h 56m
Length of Day
14h 01m
New Moon, 2% of the Moon is Illuminated
Jul 9
New Moon
Jul 15
First Quarter
Jul 22
Full
Jul 29
Last Quarter
Aug 6
New

Hourly Weather History & Observations

Time (CDT) Temp. Heat Index Dew Point Humidity Pressure Visibility Wind Dir Wind Speed Gust Speed Precip Events Conditions
12:53 AM 73.9 °F - 72.0 °F 93% 30.16 in 10.0 mi Calm Calm - N/A   Clear
1:53 AM 73.0 °F - 71.1 °F 93% 30.15 in 5.0 mi Calm Calm - N/A   Clear
2:53 AM 72.0 °F - 70.0 °F 93% 30.14 in 7.0 mi Calm Calm - N/A   Clear
3:00 AM 71.6 °F - 69.8 °F 94% 30.15 in 1.5 mi Calm Calm - N/A   Clear
3:09 AM 71.6 °F - 69.8 °F 94% 30.16 in 3.0 mi Calm Calm - N/A   Clear
3:43 AM 69.8 °F - 68.0 °F 94% 30.16 in 4.0 mi Calm Calm - N/A   Partly Cloudy
3:53 AM 71.1 °F - 68.0 °F 90% 30.15 in 5.0 mi Calm Calm - N/A   Partly Cloudy
4:16 AM 69.8 °F - 68.0 °F 94% 30.16 in 2.5 mi Calm Calm - N/A   Clear
4:27 AM 69.8 °F - 68.0 °F 94% 30.16 in 1.8 mi Calm Calm - N/A   Clear
4:30 AM 69.8 °F - 66.2 °F 88% 30.16 in 3.0 mi Calm Calm - N/A   Clear
4:53 AM 70.0 °F - 68.0 °F 93% 30.16 in 3.0 mi Calm Calm - N/A   Clear
5:13 AM 69.8 °F - 66.2 °F 88% 30.17 in 7.0 mi Calm Calm - N/A   Scattered Clouds
5:53 AM 69.1 °F - 66.9 °F 93% 30.17 in 7.0 mi Calm Calm - N/A   Mostly Cloudy
6:10 AM 69.8 °F - 66.2 °F 88% 30.18 in 4.0 mi Calm Calm - N/A   Overcast
6:13 AM 69.8 °F - 66.2 °F 88% 30.18 in 4.0 mi Calm Calm - N/A   Overcast
6:41 AM 69.8 °F - 68.0 °F 94% 30.19 in 7.0 mi Calm Calm - N/A   Overcast
6:48 AM 71.6 °F - 69.8 °F 94% 30.19 in 1.8 mi Calm Calm - N/A   Overcast
6:53 AM 71.1 °F - 69.1 °F 93% 30.19 in 0.8 mi Calm Calm - N/A   Overcast
7:03 AM 71.6 °F - 69.8 °F 94% 30.19 in 2.0 mi Calm Calm - N/A   Overcast
7:11 AM 71.6 °F - 69.8 °F 94% 30.19 in 6.0 mi Calm Calm - N/A   Mostly Cloudy
7:53 AM 73.9 °F - 71.1 °F 91% 30.20 in 10.0 mi Calm Calm - N/A   Overcast
8:53 AM 79.0 °F - 73.9 °F 84% 30.21 in 10.0 mi Calm Calm - N/A   Overcast
9:06 AM 78.8 °F - 73.4 °F 83% 30.22 in 9.0 mi Calm Calm - N/A   Overcast
9:53 AM 80.1 °F 84.5 °F 73.9 °F 81% 30.21 in 9.0 mi Calm Calm - N/A   Overcast
10:16 AM 82.4 °F 88.2 °F 73.4 °F 74% 30.22 in 8.0 mi Calm Calm - N/A   Mostly Cloudy
10:30 AM 82.4 °F 88.2 °F 73.4 °F 74% 30.22 in 9.0 mi NNE 3.5 mph - N/A   Scattered Clouds
10:53 AM 84.0 °F 90.2 °F 73.0 °F 69% 30.21 in 10.0 mi NNW 4.6 mph - N/A   Scattered Clouds
11:44 AM 86.0 °F 93.4 °F 73.4 °F 66% 30.21 in 10.0 mi NE 3.5 mph - N/A   Mostly Cloudy
11:53 AM 87.1 °F 94.5 °F 73.0 °F 63% 30.20 in 10.0 mi NE 5.8 mph - N/A   Scattered Clouds
12:53 PM 88.0 °F 93.8 °F 71.1 °F 57% 30.19 in 10.0 mi Variable 4.6 mph - N/A   Partly Cloudy
1:53 PM 87.1 °F 92.8 °F 71.1 °F 59% 30.17 in 10.0 mi Calm Calm - N/A   Clear
2:53 PM 88.0 °F 92.9 °F 70.0 °F 55% 30.14 in 10.0 mi Calm Calm - N/A   Clear
3:53 PM 90.0 °F 95.4 °F 70.0 °F 52% 30.12 in 10.0 mi WNW 4.6 mph - N/A   Clear
4:53 PM 90.0 °F 93.6 °F 68.0 °F 48% 30.11 in 10.0 mi SW 6.9 mph - N/A   Clear
5:53 PM 88.0 °F 95.6 °F 73.0 °F 61% 30.09 in 10.0 mi SW 5.8 mph - N/A   Partly Cloudy
6:53 PM 84.9 °F 92.1 °F 73.9 °F 69% 30.10 in 10.0 mi SW 5.8 mph - N/A   Clear
7:53 PM 82.0 °F 87.4 °F 73.0 °F 74% 30.11 in 10.0 mi SW 3.5 mph - N/A   Clear
8:53 PM 80.1 °F 84.2 °F 73.0 °F 79% 30.12 in 10.0 mi SW 3.5 mph - N/A   Clear
9:53 PM 79.0 °F - 73.0 °F 82% 30.13 in 10.0 mi WSW 3.5 mph - N/A   Clear
10:53 PM 79.0 °F - 72.0 °F 79% 30.13 in 10.0 mi West 3.5 mph - N/A   Clear
11:53 PM 77.0 °F - 73.0 °F 88% 30.12 in 10.0 mi Calm Calm - N/A   Clear